Voltar ao catálogo

COSMOS 1433

AtivoMilitarLEO
NORAD 13765·PAYLOAD·🇷🇺 Russia

Lançado Jan 19, 1983 de Plesetsk Cosmodrome

Loading…

Próximas Passagens (próximas 24 horas)

TLE

AtualizadoSource: Space-Track

Época: Sep 14, 2026, 08:53 UTC

1 13765U 83002E   26257.37082473  .00000007  00000-0  15017-3 0  9995
2 13765  74.0233 134.5322 0013858 194.4345 282.0226 12.51951949995278

Acompanhe COSMOS 1433 em tempo real com AllMySat

Download on the App Store